Find STARLINK-37610

NORAD ID: 799501206 Int'l Des: 2026-161B Constellation: starlink operational

当前视图

正在加载3D地球...

About STARLINK-37610

STARLINK-37610 (NORAD 799501206) is a starlink constellation satellite launched Jul 14, 2026

关于 STARLINK-37610

正在加载描述...

即将过境

Passes for default location (London). Set your location on the main map for personalized predictions.

高度历史

Loading altitude history...

两行轨道根数

1 99999C 2026161B 26195.65256943 .00131310 00000-0 141570-4 0 1955
2 99999 53.1644 325.4968 0009406 279.7918 225.7045 16.09076569 14
Epoch: Jul 14, 2026 • Age: 7 hours